Weather History for DABT - February, 2013

Change the Weather History Date:

Tuesday, February 26, 2013

  Actual Average Record
Temperature  
Mean Temperature 36 °F -  
Max Temperature 48 °F - - ()
Min Temperature 23 °F - - ()
Degree Days  
Heating Degree Days 30    
Moisture  
Dew Point 23 °F    
Average Humidity 63    
Maximum Humidity 93    
Minimum Humidity 23    
Precipitation  
Precipitation 0.00 in - - ()
Sea Level Pressure  
Sea Level Pressure 30.06 in    
Wind  
Wind Speed 6 mph ()    
Max Wind Speed 18 mph    
Max Gust Speed -    
Visibility 6.7 miles    
Events      
T = Trace of Precipitation, MM = Missing Value Source: Averaged Metar Reports

Daily Weather History Graph

Daily Weather History Graph

Search for Another Location

Airport or City:

Trip Planner

Search our weather history database for the weather conditions in past years. The results will help you decide how hot, cold, wet, or windy it might be!

Date:

Astronomy

Feb. 26, 2013 Rise Set
Actual Time 7:08 AM CET 6:27 PM CET
Civil Twilight 6:42 AM CET 6:52 PM CET
Nautical Twilight 6:13 AM CET 7:22 PM CET
Astronomical Twilight 5:43 AM CET 7:52 PM CET
Moon 7:22 PM CET (2/26) 7:05 AM CET (2/26)
Length of Visible Light 12h 10m
Length of Day
11h 18m
Full, 100% of the Moon is Illuminated
Feb 26
Full
Mar 4
Last Quarter
Mar 11
New
Mar 19
First Quarter
Mar 27
Full

Hourly Weather History & Observations

Time (CET) Temp. Windchill Dew Point Humidity Pressure Visibility Wind Dir Wind Speed Gust Speed Precip Events Conditions
12:00 AM 33.8 °F 27.7 °F 28.4 °F 81% 30.04 in 6.2 mi NW 6.9 mph - N/A   Mostly Cloudy
1:00 AM 32 °F - 26 °F 71%  in 6 mi ESE 4.6 mph - -   Partly Cloudy
1:00 AM 32.0 °F 27.5 °F 26.6 °F 80% 30.04 in 6.2 mi ESE 4.6 mph - N/A   Scattered Clouds
2:00 AM 30.2 °F 23.4 °F 26.6 °F 86% 30.04 in 6.2 mi NW 6.9 mph - N/A   Scattered Clouds
3:00 AM 30.2 °F 25.4 °F 26.6 °F 86% 30.04 in 6.2 mi SSW 4.6 mph - N/A   Scattered Clouds
4:00 AM 27 °F - 23 °F 78%  in 6 mi SSW 4.6 mph - -   Scattered Clouds
4:00 AM 26.6 °F 21.2 °F 23.0 °F 86% 30.04 in 6.2 mi SSW 4.6 mph - N/A   Partly Cloudy
5:00 AM 26.6 °F 19.1 °F 23.0 °F 86% 30.04 in 6.2 mi SSW 6.9 mph - N/A   Partly Cloudy
6:00 AM 24.8 °F 16.9 °F 21.2 °F 86% 30.04 in 6.2 mi NNE 6.9 mph - N/A   Partly Cloudy
7:00 AM 24 °F - 20 °F 81%  in 9 mi South 4.6 mph - -   Scattered Clouds
7:00 AM 23.0 °F 17.0 °F 21.2 °F 93% 30.04 in 6.2 mi South 4.6 mph - N/A   Partly Cloudy
8:00 AM 24.8 °F - 23.0 °F 93% 30.04 in 6.2 mi Calm Calm - N/A   Partly Cloudy
9:00 AM 30.2 °F - 26.6 °F 86% 30.06 in 6.2 mi Calm Calm - N/A   Partly Cloudy
10:00 AM 37 °F - 29 °F 65%  in 12 mi Calm Calm - -   Scattered Clouds
10:00 AM 37.4 °F - 30.2 °F 75% 30.06 in 6.2 mi Calm Calm - N/A   Partly Cloudy
11:00 AM 41.0 °F 38.0 °F 30.2 °F 65% 30.06 in 6.2 mi West 4.6 mph - N/A   Partly Cloudy
12:00 PM 42.8 °F 38.6 °F 21.2 °F 42% 30.06 in 6.2 mi NW 6.9 mph - N/A   Scattered Clouds
1:00 PM 44 °F - 22 °F 28%  in 12 mi WSW 9.2 mph - -   Partly Cloudy
1:00 PM 44.6 °F 39.7 °F 21.2 °F 39% 30.04 in 6.2 mi WSW 9.2 mph - N/A   Scattered Clouds
2:00 PM 46.4 °F 39.8 °F 14.0 °F 27% 30.01 in 6.2 mi NW 16.1 mph - N/A   Scattered Clouds
4:00 PM 47 °F - 21 °F 23%  in 9 mi NW 16.1 mph - -   Mostly Cloudy
4:00 PM 46.4 °F 39.8 °F 21.2 °F 37% 30.04 in 6.2 mi NW 16.1 mph - N/A   Mostly Cloudy
5:00 PM 46.4 °F 39.2 °F 21.2 °F 37% 30.04 in 6.2 mi West 18.4 mph - N/A   Mostly Cloudy
6:00 PM 44.6 °F 38.1 °F 19.4 °F 37% 30.06 in 6.2 mi West 13.8 mph - N/A   Scattered Clouds
7:00 PM 40 °F - 25 °F 42%  in 6 mi WNW 11.5 mph - -   Partly Cloudy
7:00 PM 41.0 °F 34.3 °F 24.8 °F 53% 30.06 in 6.2 mi WNW 11.5 mph - N/A   Partly Cloudy
8:00 PM 33.8 °F 27.7 °F 19.4 °F 56% 30.09 in 6.2 mi WNW 6.9 mph - N/A   Partly Cloudy
9:00 PM 33.8 °F 29.6 °F 19.4 °F 56% 30.09 in 6.2 mi South 4.6 mph - N/A   Partly Cloudy
10:00 PM 35 °F - 21 °F 43%  in 6 mi North 6.9 mph - -   Partly Cloudy
10:00 PM 35.6 °F 29.9 °F 21.2 °F 56% 30.12 in 6.2 mi North 6.9 mph - N/A   Scattered Clouds
11:00 PM 32.0 °F 25.6 °F 21.2 °F 64% 30.12 in - SSE 6.9 mph - N/A   Clear